Weather History for Eugene, OR

Change the Weather History Date:

Monday, November 19, 2012

  Actual Average Record
Temperature  
Mean Temperature 56 °F 44 °F  
Max Temperature 59 °F 51 °F 69 °F (1912)
Min Temperature 52 °F 37 °F 20 °F (2000)
Degree Days  
Heating Degree Days 9 21  
Month to date heating degree days 272 358  
Since 1 July heating degree days 698 928  
Cooling Degree Days 0 0  
Month to date cooling degree days 0 0  
Year to date cooling degree days 230 239  
Growing Degree Days 4 (Base 50)    
Moisture  
Dew Point 50 °F    
Average Humidity 79    
Maximum Humidity 100    
Minimum Humidity 57    
Precipitation  
Precipitation 1.90 in 0.27 in 2.40 in (1996)
Month to date precipitation 3.76 4.51  
Year to date precipitation 38.89 35.06  
Snow  
Snow 0.00 in - - ()
Month to date snowfall 0.0  
Since 1 July snowfall 0.0  
Since 1 September snowfall 0.0  
Snow Depth 0.00 in    
Sea Level Pressure  
Sea Level Pressure 29.69 in    
Wind  
Wind Speed 15 mph (SSW)    
Max Wind Speed 33 mph    
Max Gust Speed 44 mph    
Visibility 7 miles    
Events Rain    
T = Trace of Precipitation, MM = Missing Value Source: NWS Daily Summary

Daily Weather History Graph

Daily Weather History Graph

Search for Another Location

Airport:

Trip Planner

Search our weather history database for the weather conditions in past years. The results will help you decide how hot, cold, wet, or windy it might be!

Date:

Astronomy

Nov. 19, 2012 Rise Set
Actual Time 7:14 AM PST 4:42 PM PST
Civil Twilight 6:42 AM PST 5:13 PM PST
Nautical Twilight 6:07 AM PST 5:49 PM PST
Astronomical Twilight 5:32 AM PST 6:23 PM PST
Moon 12:14 PM PST (11/19) 11:21 PM PST (11/19)
Length of Visible Light 10h 31m
Length of Day
9h 28m
Waxing Crescent, 42% of the Moon is Illuminated
Nov 19
Waxing Crescent
Nov 20
First Quarter
Nov 28
Full
Dec 6
Last Quarter
Dec 13
New

Hourly Weather History & Observations

Time (PST) Temp. Dew Point Humidity Pressure Visibility Wind Dir Wind Speed Gust Speed Precip Events Conditions
12:54 AM 52.0 °F 45.0 °F 77% 29.73 in 10.0 mi South 17.3 mph 24.2 mph 0.01 in   Overcast
1:54 AM 54.0 °F 44.1 °F 69% 29.73 in 10.0 mi South 23.0 mph 34.5 mph N/A   Overcast
2:54 AM 53.1 °F 46.0 °F 77% 29.73 in 10.0 mi South 17.3 mph - 0.02 in   Overcast
3:54 AM 53.1 °F 46.0 °F 77% 29.72 in 10.0 mi South 20.7 mph 26.5 mph 0.01 in   Overcast
4:54 AM 55.0 °F 45.0 °F 69% 29.71 in 10.0 mi South 17.3 mph - N/A   Overcast
5:54 AM 55.9 °F 45.0 °F 67% 29.70 in 10.0 mi South 24.2 mph 31.1 mph 0.00 in Rain Light Rain
6:54 AM 57.0 °F 44.1 °F 62% 29.68 in 10.0 mi South 19.6 mph - 0.00 in Rain Light Rain
7:54 AM 57.9 °F 43.0 °F 58% 29.65 in 10.0 mi South 18.4 mph 33.4 mph N/A   Overcast
8:54 AM 59.0 °F 44.1 °F 58% 29.67 in 10.0 mi South 27.6 mph 38.0 mph N/A   Overcast
9:54 AM 57.0 °F 46.9 °F 69% 29.67 in 10.0 mi South 19.6 mph 33.4 mph 0.00 in Rain Light Rain
10:54 AM 55.4 °F 48.2 °F 77% 29.65 in 9.0 mi South 21.9 mph 28.8 mph N/A Rain Rain
11:54 AM 55.0 °F 51.1 °F 86% 29.64 in 9.0 mi South 12.7 mph - 0.04 in Rain Rain
12:54 PM 55.0 °F 51.1 °F 86% 29.63 in 9.0 mi SSW 11.5 mph - 0.03 in Rain Light Rain
1:54 PM 54.0 °F 52.0 °F 93% 29.63 in 3.0 mi South 9.2 mph - 0.17 in Rain Rain
2:54 PM 55.0 °F 53.1 °F 93% 29.62 in 3.0 mi South 12.7 mph - 0.24 in Rain Rain
3:54 PM 55.0 °F 54.0 °F 96% 29.62 in 3.0 mi SSE 13.8 mph - 0.29 in Rain Heavy Rain
4:54 PM 55.9 °F 54.0 °F 93% 29.63 in 3.0 mi SSE 8.1 mph - 0.24 in Rain Rain
5:06 PM 55.4 °F 53.6 °F 94% 29.65 in 3.0 mi West 12.7 mph - 0.04 in Rain Heavy Rain
5:13 PM 55.4 °F 55.4 °F 100% 29.67 in 1.8 mi WSW 10.4 mph - 0.17 in Rain Heavy Rain
5:25 PM 55.4 °F 55.4 °F 100% 29.68 in 2.5 mi WSW 12.7 mph - 0.25 in Rain Heavy Rain
5:31 PM 55.4 °F 53.6 °F 94% 29.68 in 3.0 mi WSW 9.2 mph - 0.28 in Rain Heavy Rain
5:54 PM 54.0 °F 52.0 °F 93% 29.70 in 3.0 mi WSW 11.5 mph - 0.37 in Rain Rain
6:54 PM 52.0 °F 51.1 °F 97% 29.72 in 3.0 mi SSW 5.8 mph - 0.17 in Rain Rain
7:54 PM 52.0 °F 51.1 °F 97% 29.74 in 3.0 mi South 9.2 mph - 0.13 in Rain Heavy Rain
8:54 PM 52.0 °F 50.0 °F 93% 29.75 in 3.0 mi South 10.4 mph - 0.10 in Rain Rain
9:54 PM 52.0 °F 51.1 °F 97% 29.77 in 5.0 mi South 8.1 mph - 0.05 in Rain Light Rain
10:54 PM 53.1 °F 51.1 °F 93% 29.76 in 10.0 mi South 10.4 mph - 0.01 in   Mostly Cloudy
11:54 PM 53.1 °F 51.1 °F 93% 29.77 in 10.0 mi South 9.2 mph - N/A   Overcast